N1JFY Weather Reports


time (UTC)temp
F
wind
direction
speed
knots
gust
knots
rain 1hr
in
rain 24hr
in
rain mn
in
humidity
%
barometer
mb
20260901131519 61 0.0 0.0 0.00 0.00 0.00 76 1018.5
20260901130015 59 0.0 0.0 0.00 0.00 0.00 78 1018.5
20260901124512 58 0.0 0.0 0.00 0.00 0.00 78 1018.5
20260901123006 56 0.0 0.0 0.00 0.00 0.00 81 1018.3
20260901121502 56 0.0 0.0 0.00 0.00 0.00 82 1018.2
20260901120103 55 0.0 0.0 0.00 0.00 0.00 85 1018.2
20260901114554 53 0.0 0.0 0.00 0.00 0.00 89 1018.1
20260901113056 51 0.0 0.0 0.00 0.00 0.00 90 1018.1
20260901111547 49 0.0 0.0 0.00 0.00 0.00 94 1018.0
20260901110040 48 0.0 0.0 0.00 0.00 0.00 96 1017.9
20260901104543 46 0.0 0.0 0.00 0.00 0.00 96 1017.9
20260901103031 45 0.0 0.0 0.00 0.00 0.00 96 1017.7
20260901101529 44 0.0 0.0 0.00 0.00 0.00 95 1017.8
20260901100022 44 0.0 0.0 0.00 0.00 0.00 95 1017.7
20260901094518 44 0.0 0.0 0.00 0.00 0.00 94 1017.5
20260901093014 45 0.0 0.0 0.00 0.00 0.00 95 1017.5
20260901091510 44 0.0 0.0 0.00 0.00 0.00 94 1017.4
20260901090010 44 0.0 0.0 0.00 0.00 0.00 95 1017.4
20260901084502 44 0.0 0.0 0.00 0.00 0.00 94 1017.4
20260901083101 44 0.0 0.0 0.00 0.00 0.00 94 1017.4
20260901081552 44 0.0 0.0 0.00 0.00 0.00 93 1017.3
20260901080047 45 0.0 0.0 0.00 0.00 0.00 94 1017.4
20260901074542 45 0.0 0.0 0.00 0.00 0.00 94 1017.1
20260901073046 45 0.0 0.0 0.00 0.00 0.00 93 1016.9
20260901071534 46 0.0 0.0 0.00 0.00 0.00 94 1016.9
20260901070029 45 0.0 0.0 0.00 0.00 0.00 93 1016.9
20260901064534 46 0.0 0.0 0.00 0.00 0.00 93 1016.8
20260901063028 46 0.0 0.0 0.00 0.00 0.00 93 1016.9
20260901061518 46 0.0 0.0 0.00 0.00 0.00 92 1017.0
20260901060014 47 0.0 0.0 0.00 0.00 0.00 92 1016.9
20260901054507 47 0.0 0.0 0.00 0.00 0.00 92 1017.0
20260901053002 47 0.0 0.0 0.00 0.00 0.00 91 1017.0
20260901051606 47 0.0 0.0 0.00 0.00 0.00 91 1016.8
20260901050059 48 0.0 0.0 0.00 0.00 0.00 90 1016.9
20260901044609 48 0.0 0.0 0.00 0.00 0.00 90 1016.8
20260901043046 49 0.0 0.0 0.00 0.00 0.00 90 1016.7
20260901041542 49 0.0 0.0 0.00 0.00 0.00 89 1016.6
20260901040038 50 0.0 0.0 0.00 0.00 0.00 89 1016.6
20260901034535 50 0.0 0.0 0.00 0.00 0.00 89 1016.6
20260901033034 50 0.0 0.0 0.00 0.00 0.00 88 1016.7
20260901031533 51 0.0 0.0 0.00 0.00 0.00 87 1016.7
20260901030041 51 0.0 0.0 0.00 0.00 0.00 88 1016.7
20260901024532 51 0.0 0.0 0.00 0.00 0.00 88 1016.7
20260901023034 51 0.0 0.0 0.00 0.00 0.00 88 1016.5
20260901021530 51 0.0 0.0 0.00 0.00 0.00 88 1016.5
20260901020030 52 0.0 0.0 0.00 0.00 0.00 88 1016.5
20260901014531 52 0.0 0.0 0.00 0.00 0.00 87 1016.4
20260901013028 53 0.0 0.0 0.00 0.00 0.00 86 1016.5
20260901011527 54 0.0 0.0 0.00 0.00 0.00 85 1016.3
20260901010028 54 0.0 0.0 0.00 0.00 0.00 84 1016.3
20260901004532 55 0.0 0.0 0.00 0.00 0.00 83 1016.3
20260901003031 56 0.0 0.0 0.00 0.00 0.00 80 1016.1
20260901001528 58 0.0 0.0 0.00 0.00 0.00 77 1015.9
20260901000025 59 0.0 0.0 0.00 0.00 0.00 73 1015.8
20260831234524 60 0.0 0.0 0.00 0.00 0.00 70 1015.6
20260831233023 62 0.0 0.0 0.00 0.00 0.00 68 1015.6
20260831231525 63 0.0 0.0 0.00 0.00 0.00 66 1015.6
20260831230022 65 0.0 0.0 0.00 0.00 0.00 64 1015.6
20260831224522 66 0.0 0.0 0.00 0.00 0.00 60 1015.5
20260831223022 66 0.0 0.0 0.00 0.00 0.00 60 1015.5
20260831221531 68 0.0 0.0 0.00 0.00 0.00 59 1015.2
20260831220021 69 0.0 0.0 0.00 0.00 0.00 54 1015.2
20260831214538 69 0.0 0.0 0.00 0.00 0.00 52 1015.0
20260831213020 70 0.0 0.0 0.00 0.00 0.00 51 1014.9
20260831211522 71 0.0 0.0 0.00 0.00 0.00 51 1014.8
20260831210019 71 0.0 0.0 0.00 0.00 0.00 51 1014.9
20260831204518 71 0.0 0.0 0.00 0.00 0.00 51 1014.8
20260831203018 71 0.0 0.0 0.00 0.00 0.00 49 1014.9
20260831201527 72 0.0 0.0 0.00 0.00 0.00 50 1014.9
20260831200030 71 0.0 0.0 0.00 0.00 0.00 50 1015.0
20260831194513 71 0.0 0.0 0.00 0.00 0.00 51 1015.1
20260831193011 71 0.0 0.0 0.00 0.00 0.00 49 1015.1
20260831191510 71 0.0 0.0 0.00 0.00 0.00 51 1015.3
20260831190011 70 0.0 0.0 0.00 0.00 0.00 52 1015.3
20260831184511 70 0.0 0.0 0.00 0.00 0.00 52 1015.4
20260831183006 70 0.0 0.0 0.00 0.00 0.00 51 1015.4
20260831181504 70 0.0 0.0 0.00 0.00 0.00 52 1015.5
20260831180002 69 0.0 0.0 0.00 0.00 0.00 52 1015.5
20260831174501 69 0.0 0.0 0.00 0.00 0.00 53 1015.6
20260831173059 69 0.0 0.0 0.00 0.00 0.00 54 1015.5
20260831171556 68 0.0 0.0 0.00 0.00 0.00 54 1015.5
20260831170054 68 0.0 0.0 0.00 0.00 0.00 56 1015.6
20260831164604 68 0.0 0.0 0.00 0.00 0.00 55 1015.5
20260831163051 67 0.0 0.0 0.00 0.00 0.00 54 1015.6
20260831161549 67 0.0 0.0 0.00 0.00 0.00 55 1015.6
20260831160048 66 0.0 0.0 0.00 0.00 0.00 55 1015.7
20260831154550 66 0.0 0.0 0.00 0.00 0.00 60 1015.9
20260831153043 65 0.0 0.0 0.00 0.00 0.00 60 1016.0
20260831151541 65 0.0 0.0 0.00 0.00 0.00 60 1016.2
20260831150040 64 0.0 0.0 0.00 0.00 0.00 61 1016.3
20260831144537 63 0.0 0.0 0.00 0.00 0.00 64 1016.5
20260831143035 62 0.0 0.0 0.00 0.00 0.00 63 1016.6
20260831141535 62 0.0 0.0 0.00 0.00 0.00 64 1016.7
20260831140039 61 0.0 0.0 0.00 0.00 0.00 65 1016.7
20260831134528 60 0.0 0.0 0.00 0.00 0.00 67 1016.6
20260831133026 60 0.0 0.0 0.00 0.00 0.00 67 1016.6